Wind_Speed
15 16 13 5 3 4 3 5 1 5 3 0 1 3 4 2 4 4 1 15 9 23 26 23 18 17 15 12 12 11 8 8 7 7 7 7 6 4 2 3 4 3 2 3 3 3 6 6 5
14 10 4 2 4 1 5 4 3 3 5 7 3 3 1 2 1 0 4 16 11 25 26 24 21 17 15 14 13 10 8 7 8 7 9 8 7 7 5 4 3 1 0 0 1 3 2 2 1
8 5 3 4 3 6 5 4 4 5 7 3 1 1 4 2 1 3 2 18 15 25 26 24 22 19 16 15 13 11 10 8 8 9 10 9 8 6 6 5 4 1 1 1 2 3 4 5 5
3 5 4 3 8 5 6 2 3 9 7 2 2 1 1 1 1 3 7 15 18 23 25 23 22 19 18 14 13 11 9 8 8 9 10 8 7 9 8 3 2 2 2 2 2 2 2 2 2
3 3 1 2 7 4 4 3 4 5 5 3 2 3 2 0 2 5 14 16 18 21 22 22 22 20 18 15 14 12 10 9 8 9 9 9 5 11 7 6 3 1 1 2 3 2 1 2 3
2 3 2 7 6 3 5 5 2 3 4 6 2 4 3 1 5 11 14 15 15 18 21 21 21 20 17 17 14 12 10 8 8 9 10 8 7 7 10 8 4 2 1 1 1 1 3 4 4
5 4 5 4 5 5 5 5 4 4 5 5 2 3 3 2 6 12 15 14 14 16 19 20 22 21 18 18 14 13 10 9 7 9 9 7 7 4 7 6 4 4 2 3 3 4 5 6 6
4 3 3 6 6 6 3 3 2 4 5 2 4 4 2 3 11 12 15 14 14 15 18 20 22 21 20 19 16 14 11 9 7 9 10 8 5 5 5 5 4 4 3 4 5 5 5 5 5
3 2 6 6 7 5 1 1 2 3 3 3 2 3 3 3 13 13 13 13 15 17 19 20 21 23 22 20 18 16 13 10 8 9 10 9 7 6 6 6 5 4 3 4 4 4 4 5 5
4 4 6 5 5 3 3 1 4 5 6 4 4 2 3 10 14 12 10 15 19 21 22 21 22 23 23 22 20 18 15 12 10 9 9 9 7 6 7 6 7 5 4 4 4 5 5 6 7
3 7 4 3 3 3 3 5 2 2 5 7 3 6 5 1 5 8 11 14 21 21 22 24 23 23 23 24 22 20 17 14 12 10 10 8 6 5 5 5 6 6 5 6 5 5 5 6 6
3 6 4 3 3 4 3 4 6 4 7 4 4 5 4 4 6 9 13 17 18 19 21 23 24 23 24 25 22 21 20 16 14 12 11 10 8 6 5 3 3 3 3 4 5 3 3 3 5
3 3 4 4 6 6 6 10 8 9 9 10 11 7 9 8 9 14 16 15 16 20 24 26 26 26 25 26 24 22 21 18 15 13 12 10 8 6 4 3 2 1 1 1 1 2 4 5 6
2 3 6 6 5 5 7 10 3 9 7 9 9 10 10 9 12 14 14 19 17 20 21 23 29 30 28 28 26 23 22 19 16 15 12 10 8 7 6 5 4 2 2 1 2 4 5 7 8
4 5 6 6 6 7 4 15 19 14 11 14 14 10 10 11 12 17 20 16 20 23 22 22 25 31 33 30 27 24 21 20 17 14 13 13 13 10 9 8 4 2 1 2 3 5 6 7 9
3 2 2 5 6 6 10 19 11 9 18 17 14 11 10 14 14 20 20 19 21 22 20 17 20 27 34 32 29 25 19 18 17 16 17 18 14 12 11 8 5 4 2 4 6 8 9 11 14
5 5 5 5 3 4 10 5 3 6 6 9 10 10 11 12 11 25 27 21 20 15 13 14 18 25 32 31 27 23 20 19 20 22 21 19 17 14 11 6 4 3 4 6 9 10 13 15 19
5 5 4 5 3 4 9 14 14 14 11 12 10 9 9 10 13 20 18 18 15 12 10 10 16 23 29 28 26 25 23 24 26 24 22 19 15 11 9 9 6 4 5 8 10 10 12 14 19
3 3 6 4 8 7 11 16 17 13 9 11 12 11 11 11 11 15 17 15 14 15 13 12 17 24 30 32 32 29 31 29 27 24 21 17 15 14 11 10 8 6 8 11 11 10 12 15 21
8 14 17 12 10 10 13 25 18 17 17 14 15 16 12 10 7 8 11 14 17 18 17 16 19 26 31 32 30 32 35 29 28 24 21 18 16 14 12 10 9 8 9 10 12 14 11 11 19
8 13 14 14 6 13 12 27 20 21 23 22 22 20 17 14 12 8 8 19 17 19 21 22 23 26 30 32 33 34 30 29 27 25 23 20 16 14 11 10 9 9 10 11 12 13 14 12 13
16 8 13 12 5 7 4 12 9 4 11 14 17 15 15 13 9 8 9 11 21 21 19 22 25 27 29 33 38 43 33 27 21 27 24 21 15 14 11 10 9 10 10 10 11 11 12 11 11
5 7 9 8 7 8 12 5 5 4 11 11 9 11 14 15 16 13 12 20 25 22 22 23 25 27 29 33 39 36 29 22 32 29 24 21 17 13 11 10 10 10 9 9 9 10 11 10 7
1 7 5 6 5 10 11 12 23 10 10 9 10 11 14 14 13 12 12 19 23 22 24 26 28 28 31 33 34 34 34 37 33 28 24 20 16 13 11 10 9 9 8 8 9 9 9 8 8
9 3 3 5 7 9 7 10 23 5 7 8 10 11 10 9 9 10 12 12 20 26 29 30 31 30 30 31 30 31 34 34 32 27 23 19 16 13 11 9 8 8 8 7 7 8 8 8 8
13 12 5 5 4 4 5 10 15 12 20 21 19 14 8 5 7 11 14 13 22 26 30 29 32 31 29 28 28 29 30 30 26 22 19 16 14 12 10 8 7 7 6 6 8 8 9 9 10
5 12 13 8 7 5 5 8 11 11 16 15 10 10 9 8 9 11 11 17 22 25 27 32 33 31 29 29 30 31 29 27 25 21 18 16 13 11 9 6 6 5 5 7 9 10 10 11 10
12 4 5 6 6 7 6 7 11 14 12 15 20 16 8 7 8 9 11 12 18 22 29 32 34 34 32 32 32 31 28 25 23 20 18 14 13 10 7 6 5 5 6 7 9 10 10 10 13
7 9 7 4 4 5 3 7 5 7 2 12 14 11 10 14 14 12 11 16 21 25 28 31 34 37 35 33 32 30 27 24 21 19 16 13 11 8 6 5 4 5 7 9 11 11 11 15 16
15 15 19 5 5 4 3 14 5 7 8 12 12 6 5 7 11 12 13 17 22 24 26 30 33 37 35 33 31 29 26 22 20 17 14 11 9 7 5 4 5 7 9 11 12 13 14 16 18
Wind_Direction
330 337 333 34 46 61 266 260 229 319 298 345 324 171 215 175 156 209 161 166 158 169 169 171 172 179 172 164 163 163 164 158 158 157 155 154 158 156 165 130 143 130 71 71 144 87 87 96 97
330 342 26 78 100 74 266 253 222 210 268 309 203 145 312 271 277 310 140 176 164 170 171 174 177 175 173 170 165 165 165 161 161 157 154 143 138 137 140 156 149 146 154 142 167 196 181 196 218
328 359 79 104 143 190 221 215 253 277 283 245 203 86 154 227 252 195 217 181 169 172 174 177 180 178 179 177 173 171 167 169 167 165 160 163 156 165 153 143 138 106 57 169 159 191 211 239 260
331 20 38 119 232 247 207 234 296 334 342 151 310 139 282 228 182 219 184 174 173 177 178 177 181 179 183 187 179 177 173 175 176 180 181 178 188 176 180 174 141 46 45 69 121 138 167 238 271
51 64 142 207 248 243 258 257 303 315 290 294 299 233 229 57 241 185 162 166 176 180 182 180 182 185 189 192 186 182 180 181 184 191 192 203 216 189 200 201 212 325 42 76 75 102 58 340 346
61 100 111 226 239 250 275 255 296 246 266 293 304 154 266 90 140 158 166 170 178 183 184 185 186 188 192 197 195 193 187 187 190 190 195 213 218 208 210 210 232 275 307 1 20 333 300 295 295
136 108 206 219 245 280 231 212 219 242 262 265 168 171 275 300 165 169 175 177 182 190 189 190 193 195 196 203 205 202 200 197 195 193 196 209 211 213 191 219 240 273 277 288 315 316 309 302 305
115 117 193 219 218 262 222 218 204 188 268 311 153 226 253 260 169 166 180 185 194 197 198 199 200 200 202 204 211 210 208 212 207 196 200 209 201 185 195 233 249 262 294 310 317 325 328 320 329
133 124 232 231 159 236 295 316 318 298 293 314 260 181 257 147 156 154 174 195 202 206 206 206 206 206 206 206 208 212 213 216 215 207 210 221 219 213 213 229 240 260 291 318 332 351 344 328 337
161 198 235 198 192 261 294 330 360 353 352 325 312 282 327 172 168 165 178 196 206 210 210 210 213 213 210 209 208 211 211 213 216 214 215 225 228 224 228 236 251 257 280 297 315 326 326 321 328
183 235 259 263 309 320 282 297 232 257 275 233 294 318 354 296 188 198 210 215 217 218 214 215 217 216 215 212 210 211 211 211 214 213 216 213 210 218 232 254 261 261 267 286 304 314 325 325 329
209 234 219 277 300 311 274 311 308 258 246 248 278 285 289 290 253 223 226 230 231 231 229 225 222 219 216 216 214 213 211 210 210 205 207 212 216 231 255 250 256 273 276 291 294 311 335 314 328
211 240 262 302 302 272 272 260 255 253 255 277 287 282 266 263 254 247 246 259 256 249 245 234 227 222 218 214 216 215 212 210 208 202 202 208 214 229 252 244 156 142 195 351 38 348 325 317 325
302 273 262 274 259 274 262 261 235 244 230 261 263 270 271 242 241 253 249 257 253 262 265 247 234 226 218 213 213 213 212 209 208 205 203 205 210 197 175 156 136 115 97 338 327 336 338 335 337
274 296 291 223 222 242 243 261 236 247 234 246 254 250 267 266 255 226 237 247 265 269 274 258 237 227 218 211 211 211 211 211 209 207 199 196 182 175 160 143 140 105 46 8 358 354 335 333 342
328 284 298 306 227 237 176 258 294 249 231 230 237 236 240 255 257 248 252 262 267 273 262 248 232 226 216 210 208 208 208 210 204 198 182 173 168 161 158 136 124 86 21 11 5 356 347 349 349
228 253 214 318 205 255 201 296 285 316 242 236 237 240 240 246 256 256 258 262 265 263 242 235 221 218 209 205 203 199 199 191 182 169 165 162 156 154 147 131 115 75 36 24 21 5 360 355 349
204 231 222 210 297 348 277 274 280 294 299 275 260 244 246 247 253 260 260 259 247 220 213 209 204 207 200 191 185 179 170 165 164 158 154 153 150 143 135 127 117 81 45 34 25 18 16 11 355
301 268 269 305 297 320 266 276 273 272 263 269 273 258 244 243 254 257 262 248 216 206 194 184 185 190 185 172 162 158 154 154 149 149 149 148 145 138 130 119 101 69 40 37 33 31 22 17 9
238 264 271 275 252 263 282 277 274 267 259 246 248 258 250 245 238 234 227 210 204 203 191 182 179 179 179 175 166 159 152 149 146 144 142 142 138 131 122 111 91 65 53 49 43 38 33 27 22
240 244 262 262 295 276 288 283 271 256 243 242 241 236 247 239 237 223 198 204 203 199 189 185 179 178 178 175 165 153 147 140 136 138 135 132 132 122 114 98 80 69 57 55 48 42 40 27 26
256 205 236 253 251 258 155 287 250 285 274 240 246 227 227 224 222 212 193 185 201 199 189 185 180 179 178 174 166 159 152 148 152 144 136 128 125 116 105 92 81 70 65 61 50 41 39 35 31
247 188 210 226 237 271 237 274 300 223 266 259 242 229 225 216 211 200 192 195 196 188 181 181 176 177 175 173 167 160 150 153 149 140 132 126 118 109 98 88 78 73 67 59 48 38 31 26 19
233 246 283 261 250 246 227 208 277 248 245 234 237 231 226 220 205 197 187 168 171 176 173 172 170 171 172 173 170 170 161 150 143 140 130 123 116 107 97 88 81 76 67 51 38 25 13 10 1
199 178 264 240 214 250 171 202 241 245 279 257 258 249 247 225 189 162 157 156 154 166 169 170 170 164 169 173 171 168 160 154 146 142 135 130 120 109 98 91 85 72 56 39 22 11 2 354 345
193 194 195 217 216 274 162 227 246 226 237 262 248 247 235 219 179 177 171 164 162 163 165 164 164 160 163 166 165 161 154 147 140 138 133 126 120 113 104 93 79 65 46 23 7 358 350 339 331
169 211 218 282 266 280 244 284 296 259 254 266 251 247 237 204 178 175 168 162 159 158 160 161 158 156 158 157 152 148 147 143 137 132 129 124 118 114 108 95 76 52 24 2 353 345 338 330 333
229 128 197 197 229 233 234 252 250 306 283 267 257 242 217 176 161 156 154 148 146 147 151 157 159 153 151 149 147 144 142 138 133 130 126 124 118 113 106 90 59 29 5 350 343 337 336 334 333
190 220 224 243 203 210 275 255 226 177 299 337 291 250 198 176 171 159 147 135 129 133 142 146 151 147 147 147 144 139 135 133 130 127 125 122 116 112 104 75 36 5 352 346 343 341 340 332 330
222 227 218 237 208 223 206 261 165 181 48 3 328 282 143 137 138 136 133 129 133 131 136 141 144 145 147 145 142 136 134 133 130 125 123 119 117 110 85 47 9 353 347 346 344 340 335 330 327
Height
777 774 773 773 802 810 810 799 781 781 773 761 762 763 764 760 765 784 755 756 758 762 766 770 774 777 779 781 784 786 787 788 790 791 792 793 795 795 796 797 798 798 799 799 799 800 800 801 802
776 774 774 786 810 819 812 789 781 772 766 760 761 761 763 763 756 754 755 756 758 761 766 770 773 776 779 782 784 786 788 789 791 792 793 794 796 797 797 798 798 799 799 799 799 800 800 802 802
777 775 783 798 815 816 808 783 777 770 764 760 759 757 759 760 755 754 754 756 759 762 765 769 773 776 779 782 784 786 788 790 792 793 794 796 796 798 798 799 798 799 798 799 799 800 800 802 802
777 777 790 802 805 796 789 776 774 772 762 756 757 762 756 752 753 754 755 756 760 762 765 768 773 776 779 781 784 787 788 790 792 794 794 796 796 796 798 799 799 799 799 799 799 799 800 801 801
777 787 800 804 800 789 783 776 771 775 771 762 759 762 759 752 752 753 754 757 760 764 767 769 772 776 779 782 783 786 788 790 791 793 794 795 795 796 798 800 799 800 799 799 800 800 801 801 802
785 791 807 807 796 785 780 773 772 771 768 764 762 763 758 752 752 754 756 759 761 764 767 770 772 775 778 781 784 786 787 789 791 792 794 796 796 796 798 799 800 800 800 800 800 800 802 802 802
786 797 801 798 796 789 779 770 773 770 768 764 756 764 756 751 752 754 756 759 761 765 767 769 771 774 776 780 783 785 787 788 789 791 794 795 796 796 798 799 800 801 801 801 801 800 801 802 801
785 790 795 796 790 789 769 765 761 766 764 755 754 765 760 751 751 755 757 758 762 764 766 768 770 773 775 778 782 785 786 788 789 791 793 795 796 796 798 799 800 801 801 801 800 800 800 801 800
780 794 796 788 790 780 768 769 761 759 761 757 754 754 751 750 752 754 756 758 760 763 765 767 769 771 773 776 779 784 786 788 789 791 793 795 796 797 797 799 800 801 800 801 800 799 800 801 799
782 792 785 777 777 774 770 770 768 767 768 762 757 751 751 750 751 753 755 756 757 759 761 764 768 770 772 775 777 781 784 786 788 790 793 794 795 796 797 798 799 799 799 800 800 799 799 800 799
780 782 775 772 770 770 772 770 766 767 771 764 763 758 754 753 752 753 753 755 755 757 759 761 764 767 770 773 775 778 782 784 786 789 792 793 794 796 796 797 798 798 798 800 799 798 798 799 798
783 777 775 771 769 770 772 769 771 767 764 757 758 757 755 754 754 752 752 753 754 755 756 759 761 764 767 770 773 776 779 782 785 787 790 793 794 795 796 796 797 797 798 799 799 797 797 797 796
782 778 773 772 772 770 769 770 770 764 759 755 753 754 753 753 752 750 750 750 751 751 751 754 757 759 763 767 771 775 777 780 783 785 787 791 792 794 796 796 795 796 797 797 798 796 796 796 794
779 777 776 772 770 769 769 765 765 754 754 755 754 752 750 749 747 748 747 745 747 747 747 748 751 755 759 763 767 771 775 778 781 784 786 789 791 792 793 795 796 796 797 797 796 795 796 795 793
777 780 775 772 768 768 763 759 754 750 751 751 749 749 747 744 742 742 741 742 741 741 742 742 744 749 754 758 764 768 772 776 780 783 785 787 789 790 792 794 795 797 797 796 795 794 795 794 791
778 780 780 766 763 761 763 751 747 738 741 743 744 744 742 738 735 735 736 737 736 735 736 738 740 742 748 754 760 765 770 774 778 780 782 785 787 789 791 792 794 795 796 795 793 793 793 791 789
779 785 781 771 759 759 762 752 741 739 739 740 741 740 737 735 730 728 729 731 731 730 732 733 735 739 745 751 757 763 766 771 775 778 781 783 786 788 790 789 793 794 795 793 792 793 792 789 787
785 787 777 776 764 765 763 755 747 742 740 738 737 736 734 733 728 725 726 727 727 727 729 729 732 738 743 749 754 760 763 769 773 776 779 783 785 787 788 790 792 794 794 792 792 792 791 790 789
780 783 784 777 770 773 764 752 745 741 741 739 731 728 728 727 723 722 723 722 723 725 726 727 730 735 739 744 750 756 760 769 772 775 779 782 785 786 788 790 792 794 793 792 792 792 791 790 788
781 779 773 769 770 769 760 738 737 734 729 727 725 722 721 720 719 718 718 719 719 722 723 726 729 734 737 742 747 753 759 766 770 774 779 782 785 786 787 790 792 793 792 792 792 792 792 792 792
780 781 777 773 771 764 764 729 722 711 709 710 709 711 711 711 712 714 715 715 718 719 719 722 727 732 735 740 745 752 760 767 771 775 780 782 785 786 788 790 791 792 792 792 793 793 793 794 794
772 769 772 773 780 777 761 733 713 709 706 704 701 702 701 703 704 705 708 711 713 716 719 721 725 731 735 739 743 745 752 762 770 774 778 780 785 786 789 789 791 791 792 793 794 794 794 795 796
768 763 768 768 773 777 761 771 712 709 705 699 699 696 692 691 691 696 700 701 707 713 716 721 724 730 735 739 743 747 754 761 767 773 776 780 784 787 789 790 791 792 793 794 794 794 794 795 796
761 765 766 767 766 751 738 756 694 702 699 692 690 688 683 682 684 685 691 696 704 711 715 719 723 729 734 739 744 747 752 760 766 772 776 780 784 787 790 790 791 793 794 794 794 795 795 795 795
765 772 770 768 755 739 727 740 702 692 692 690 687 683 680 677 679 684 689 694 701 707 713 718 722 728 734 739 745 749 753 758 764 770 775 780 784 787 789 791 792 793 793 794 794 794 794 793 793
757 757 768 767 750 739 724 726 690 685 678 674 673 673 673 676 679 681 684 689 695 703 710 716 721 727 733 740 746 750 755 761 766 771 775 780 783 787 789 792 792 792 793 794 794 793 792 792 791
753 752 744 752 741 747 717 711 688 679 679 674 674 670 672 674 677 679 683 687 692 700 707 713 720 728 734 741 747 752 758 763 767 772 777 781 784 787 790 791 792 792 792 792 792 791 791 790 789
738 735 744 744 735 732 722 719 698 679 676 667 660 660 666 671 675 679 682 688 694 701 706 714 721 727 735 743 749 754 760 765 769 773 778 782 784 787 789 790 790 791 791 791 790 790 788 787 786
737 737 735 727 725 738 734 696 678 675 674 670 664 655 660 660 667 674 682 688 693 702 709 715 723 727 737 744 751 755 761 766 771 774 779 782 784 787 788 788 789 790 790 790 788 787 786 784 782
709 720 716 717 727 722 730 684 664 672 668 666 662 659 659 663 667 675 682 689 696 702 711 717 725 729 738 745 752 757 762 768 772 776 780 782 784 786 787 787 788 788 788 787 785 784 782 780 778